2021-09-14 00:03:02 r, 20.97m,0000000000Hz,0001315792c,0000002.855s, 024.8C,00002191
2021-09-14 00:13:05 r, 20.78m,0000000000Hz,0001113405c,0000002.416s, 024.8C,00002191
2021-09-14 00:23:03 r, 20.85m,0000000000Hz,0001189022c,0000002.580s, 024.8C,00002191
2021-09-14 00:33:02 r, 20.87m,0000000001Hz,0001206950c,0000002.619s, 024.8C,00002191
2021-09-14 00:43:03 r, 20.91m,0000000001Hz,0001245134c,0000002.702s, 024.4C,00002191
2021-09-14 00:53:03 r, 20.94m,0000000000Hz,0001272665c,0000002.762s, 024.4C,00002191
2021-09-14 01:03:02 r, 20.98m,0000000000Hz,0001330542c,0000002.887s, 024.1C,00002191
2021-09-14 01:13:03 r, 20.99m,0000000000Hz,0001335372c,0000002.898s, 024.1C,00002191
2021-09-14 01:23:03 r, 20.99m,0000000001Hz,0001339816c,0000002.908s, 023.8C,00002191
2021-09-14 01:33:02 r, 21.00m,0000000000Hz,0001353475c,0000002.937s, 023.8C,00002191
2021-09-14 01:43:03 r, 21.02m,0000000000Hz,0001369688c,0000002.972s, 023.8C,00002191
2021-09-14 01:53:04 r, 21.02m,0000000000Hz,0001380446c,0000002.996s, 023.8C,00002191
2021-09-14 02:03:02 r, 21.03m,0000000001Hz,0001387475c,0000003.011s, 023.5C,00002191
2021-09-14 02:13:04 r, 21.02m,0000000000Hz,0001380128c,0000002.995s, 023.5C,00002191
2021-09-14 02:23:03 r, 21.02m,0000000000Hz,0001377717c,0000002.990s, 023.2C,00002191
2021-09-14 02:33:02 r, 21.02m,0000000000Hz,0001377814c,0000002.990s, 022.8C,00002191
2021-09-14 02:43:04 r, 21.02m,0000000000Hz,0001380376c,0000002.996s, 022.5C,00002191
2021-09-14 02:53:03 r, 21.03m,0000000000Hz,0001384489c,0000003.005s, 022.2C,00002191
2021-09-14 03:03:02 r, 21.02m,0000000000Hz,0001378255c,0000002.991s, 022.2C,00002191
2021-09-14 03:13:03 r, 21.02m,0000000000Hz,0001373083c,0000002.980s, 021.9C,00002191
2021-09-14 03:23:03 r, 21.01m,0000000000Hz,0001362984c,0000002.958s, 021.5C,00002191
2021-09-14 03:33:02 r, 21.01m,0000000000Hz,0001361354c,0000002.954s, 021.2C,00002191
2021-09-14 03:43:03 r, 21.01m,0000000000Hz,0001366834c,0000002.966s, 021.2C,00002191
2021-09-14 03:53:03 r, 21.01m,0000000000Hz,0001370733c,0000002.975s, 020.9C,00002191
2021-09-14 04:03:02 r, 21.00m,0000000000Hz,0001365808c,0000002.964s, 020.9C,00002191
2021-09-14 04:13:04 r, 21.00m,0000000000Hz,0001362248c,0000002.956s, 020.9C,00002191
2021-09-14 04:23:03 r, 21.00m,0000000001Hz,0001356580c,0000002.944s, 020.6C,00002191
2021-09-14 04:33:02 r, 21.00m,0000000000Hz,0001359767c,0000002.951s, 020.6C,00002191
2021-09-14 04:43:04 r, 21.01m,0000000000Hz,0001370640c,0000002.974s, 020.3C,00002191
2021-09-14 04:53:03 r, 21.00m,0000000000Hz,0001359162c,0000002.950s, 020.3C,00002191
2021-09-14 05:03:02 r, 21.00m,0000000000Hz,0001353997c,0000002.938s, 020.3C,00002191
2021-09-14 05:13:03 r, 20.98m,0000000000Hz,0001343100c,0000002.915s, 020.3C,00002191
2021-09-14 05:23:03 r, 20.96m,0000000000Hz,0001308905c,0000002.841s, 020.3C,00002191
2021-09-14 05:33:02 r, 20.88m,0000000000Hz,0001215417c,0000002.638s, 020.3C,00002191
2021-09-14 05:43:03 r, 20.61m,0000000000Hz,0000953365c,0000002.069s, 020.6C,00002191
2021-09-14 05:53:03 r, 19.93m,0000000001Hz,0000508750c,0000001.104s, 020.6C,00002191
2021-09-14 06:03:02 r, 18.79m,0000000002Hz,0000179559c,0000000.390s, 020.6C,00002191
2021-09-14 06:13:03 r, 17.37m,0000000009Hz,0000048604c,0000000.105s, 020.6C,00002191
2021-09-14 06:23:05 r, 15.52m,0000000052Hz,0000008887c,0000000.019s, 020.6C,00002191
2021-09-14 06:33:02 r, 13.32m,0000000396Hz,0000000000c,0000000.000s, 020.3C,00002191
2021-09-14 06:43:05 r, 11.28m,0000002622Hz,0000000000c,0000000.000s, 019.9C,00002191
2021-09-14 06:53:03 r, 09.44m,0000014090Hz,0000000000c,0000000.000s, 019.6C,00002191
2021-09-14 07:03:02 r, 08.03m,0000051925Hz,0000000000c,0000000.000s, 019.9C,00002191
2021-09-14 07:13:05 r, 07.11m,0000120486Hz,0000000000c,0000000.000s, 019.9C,00002191
2021-09-14 07:23:03 r, 06.54m,0000204193Hz,0000000000c,0000000.000s, 019.9C,00002191
2021-09-14 07:33:02 r, 06.17m,0000290233Hz,0000000000c,0000000.000s, 020.6C,00002191
2021-09-14 07:43:03 r, 05.89m,0000373108Hz,0000000000c,0000000.000s, 021.2C,00002191
2021-09-14 07:53:03 r, 00.00m,0000524753Hz,0000000000c,0000000.000s, 022.5C,00002191
2021-09-14 08:03:02 r, 00.00m,0000565153Hz,0000000000c,0000000.000s, 023.5C,00002191
2021-09-14 08:13:04 r, 00.00m,0000597240Hz,0000000000c,0000000.000s, 024.4C,00002191
2021-09-14 08:23:03 r, 00.00m,0000597174Hz,0000000000c,0000000.000s, 025.4C,00002191
2021-09-14 08:33:02 r, 00.00m,0000596950Hz,0000000000c,0000000.000s, 026.1C,00002191
2021-09-14 08:43:03 r, 00.00m,0000596867Hz,0000000000c,0000000.000s, 027.3C,00002191
2021-09-14 08:53:05 r, 00.00m,0000596743Hz,0000000000c,0000000.000s, 028.0C,00002191
2021-09-14 09:03:02 r, 00.00m,0000596753Hz,0000000000c,0000000.000s, 028.3C,00002191
2021-09-14 09:13:02 r, 00.00m,0000596750Hz,0000000000c,0000000.000s, 028.3C,00002191
2021-09-14 09:23:03 r, 00.00m,0000596825Hz,0000000000c,0000000.000s, 027.7C,00002191
2021-09-14 09:33:02 r, 00.00m,0000596855Hz,0000000000c,0000000.000s, 027.7C,00002191
2021-09-14 09:43:02 r, 00.00m,0000596774Hz,0000000000c,0000000.000s, 027.7C,00002191
2021-09-14 09:53:04 r, 00.00m,0000596719Hz,0000000000c,0000000.000s, 028.6C,00002191
2021-09-14 10:03:02 r, 00.00m,0000596691Hz,0000000000c,0000000.000s, 028.6C,00002191
2021-09-14 10:13:02 r, 00.00m,0000596707Hz,0000000000c,0000000.000s, 028.6C,00002191
2021-09-14 10:23:05 r, 00.00m,0000596618Hz,0000000000c,0000000.000s, 029.3C,00002191
2021-09-14 10:33:02 r, 00.00m,0000596443Hz,0000000000c,0000000.000s, 030.2C,00002191
2021-09-14 10:43:02 r, 00.00m,0000596143Hz,0000000000c,0000000.000s, 032.2C,00002191
2021-09-14 10:53:05 r, 00.00m,0000595888Hz,0000000000c,0000000.000s, 034.1C,00002191
2021-09-14 11:03:02 r, 00.00m,0000596024Hz,0000000000c,0000000.000s, 033.8C,00002191
2021-09-14 11:13:02 r, 00.00m,0000595863Hz,0000000000c,0000000.000s, 034.8C,00002191
2021-09-14 11:23:03 r, 00.00m,0000595725Hz,0000000000c,0000000.000s, 036.4C,00002191
2021-09-14 11:33:02 r, 00.00m,0000595902Hz,0000000000c,0000000.000s, 035.4C,00002191
2021-09-14 11:43:02 r, 00.00m,0000596071Hz,0000000000c,0000000.000s, 034.1C,00002191
2021-09-14 11:53:03 r, 00.00m,0000596117Hz,0000000000c,0000000.000s, 033.5C,00002191
2021-09-14 12:03:02 r, 00.00m,0000596190Hz,0000000000c,0000000.000s, 033.5C,00002191
2021-09-14 12:13:02 r, 00.00m,0000596208Hz,0000000000c,0000000.000s, 032.8C,00002191
2021-09-14 12:23:04 r, 00.00m,0000596253Hz,0000000000c,0000000.000s, 032.5C,00002191
2021-09-14 12:33:02 r, 00.00m,0000596257Hz,0000000000c,0000000.000s, 032.5C,00002191
2021-09-14 12:43:02 r, 00.00m,0000596165Hz,0000000000c,0000000.000s, 033.1C,00002191
2021-09-14 12:53:05 r, 00.00m,0000596107Hz,0000000000c,0000000.000s, 033.5C,00002191
2021-09-14 13:03:02 r, 00.00m,0000596017Hz,0000000000c,0000000.000s, 034.4C,00002191
2021-09-14 13:13:02 r, 00.00m,0000595844Hz,0000000000c,0000000.000s, 035.1C,00002191
2021-09-14 13:23:03 r, 00.00m,0000595493Hz,0000000000c,0000000.000s, 037.7C,00002191
2021-09-14 13:33:02 r, 00.00m,0000595390Hz,0000000000c,0000000.000s, 038.0C,00002191
2021-09-14 13:43:02 r, 00.00m,0000595179Hz,0000000000c,0000000.000s, 040.2C,00002191
2021-09-14 13:53:03 r, 00.00m,0000594926Hz,0000000000c,0000000.000s, 041.5C,00002191
2021-09-14 14:03:02 r, 00.00m,0000594614Hz,0000000000c,0000000.000s, 043.5C,00002191
2021-09-14 14:13:02 r, 00.00m,0000594837Hz,0000000000c,0000000.000s, 042.8C,00002191
2021-09-14 14:23:04 r, 00.00m,0000594444Hz,0000000000c,0000000.000s, 044.4C,00002191
2021-09-14 14:33:02 r, 00.00m,0000594272Hz,0000000000c,0000000.000s, 045.7C,00002191
2021-09-14 14:43:02 r, 00.00m,0000594198Hz,0000000000c,0000000.000s, 046.0C,00002191
2021-09-14 14:53:05 r, 00.00m,0000594405Hz,0000000000c,0000000.000s, 045.1C,00002191
2021-09-14 15:03:02 r, 00.00m,0000595076Hz,0000000000c,0000000.000s, 040.9C,00002191
2021-09-14 15:13:02 r, 00.00m,0000595201Hz,0000000000c,0000000.000s, 039.0C,00002191
2021-09-14 15:23:05 r, 00.00m,0000595336Hz,0000000000c,0000000.000s, 037.3C,00002191
2021-09-14 15:33:03 r, 00.00m,0000595490Hz,0000000000c,0000000.000s, 036.7C,00002191
2021-09-14 15:43:02 r, 00.00m,0000594981Hz,0000000000c,0000000.000s, 039.9C,00002191
2021-09-14 15:53:03 r, 00.00m,0000595163Hz,0000000000c,0000000.000s, 039.3C,00002191
2021-09-14 16:03:05 r, 00.00m,0000595063Hz,0000000000c,0000000.000s, 039.3C,00002191
2021-09-14 16:13:02 r, 00.00m,0000594749Hz,0000000000c,0000000.000s, 041.2C,00002191
2021-09-14 16:23:04 r, 00.00m,0000594970Hz,0000000000c,0000000.000s, 041.2C,00002191
2021-09-14 16:33:03 r, 00.00m,0000595152Hz,0000000000c,0000000.000s, 039.0C,00002191
2021-09-14 16:43:02 r, 00.00m,0000595156Hz,0000000000c,0000000.000s, 039.6C,00002191
2021-09-14 16:53:05 r, 00.00m,0000595207Hz,0000000000c,0000000.000s, 039.0C,00002191
2021-09-14 17:03:03 r, 00.00m,0000595200Hz,0000000000c,0000000.000s, 038.3C,00002191
2021-09-14 17:13:02 r, 00.00m,0000595414Hz,0000000000c,0000000.000s, 037.3C,00002191
2021-09-14 17:23:05 r, 00.00m,0000595496Hz,0000000000c,0000000.000s, 036.4C,00002191
2021-09-14 17:33:03 r, 00.00m,0000595590Hz,0000000000c,0000000.000s, 035.7C,00002191
2021-09-14 17:43:02 r, 00.00m,0000595393Hz,0000000000c,0000000.000s, 036.4C,00002191
2021-09-14 17:53:03 r, 00.00m,0000595297Hz,0000000000c,0000000.000s, 037.3C,00002191
2021-09-14 18:03:04 r, 00.00m,0000595455Hz,0000000000c,0000000.000s, 037.7C,00002191
2021-09-14 18:13:02 r, 00.00m,0000595395Hz,0000000000c,0000000.000s, 037.3C,00002191
2021-09-14 18:23:04 r, 00.00m,0000595521Hz,0000000000c,0000000.000s, 036.7C,00002191
2021-09-14 18:33:03 r, 00.00m,0000595564Hz,0000000000c,0000000.000s, 036.4C,00002191
2021-09-14 18:43:02 r, 00.00m,0000566581Hz,0000000000c,0000000.000s, 035.4C,00002191
2021-09-14 18:53:03 r, 00.00m,0000450239Hz,0000000000c,0000000.000s, 034.8C,00002191
2021-09-14 19:03:05 r, 05.91m,0000365102Hz,0000000000c,0000000.000s, 033.5C,00002191
2021-09-14 19:13:02 r, 06.20m,0000280244Hz,0000000000c,0000000.000s, 032.5C,00002191
2021-09-14 19:23:05 r, 06.53m,0000206507Hz,0000000000c,0000000.000s, 031.5C,00002191
2021-09-14 19:33:03 r, 07.10m,0000122599Hz,0000000000c,0000000.000s, 030.2C,00002191
2021-09-14 19:43:02 r, 07.92m,0000057542Hz,0000000000c,0000000.000s, 029.6C,00002191
2021-09-14 19:53:03 r, 09.17m,0000018181Hz,0000000000c,0000000.000s, 028.6C,00002191
2021-09-14 20:03:04 r, 11.03m,0000003291Hz,0000000000c,0000000.000s, 027.7C,00002191
2021-09-14 20:13:02 r, 13.17m,0000000454Hz,0000000000c,0000000.000s, 026.7C,00002191
2021-09-14 20:23:04 r, 15.40m,0000000058Hz,0000007912c,0000000.017s, 026.4C,00002191
2021-09-14 20:33:03 r, 16.73m,0000000018Hz,0000027083c,0000000.059s, 025.7C,00002191
2021-09-14 20:43:02 r, 18.36m,0000000004Hz,0000121172c,0000000.263s, 025.4C,00002191
2021-09-14 20:53:03 r, 18.96m,0000000002Hz,0000211107c,0000000.458s, 025.4C,00002191
2021-09-14 21:03:05 r, 19.71m,0000000001Hz,0000419591c,0000000.911s, 025.4C,00002191
2021-09-14 21:13:02 r, 19.52m,0000000001Hz,0000352070c,0000000.764s, 025.4C,00002191
2021-09-14 21:23:05 r, 19.69m,0000000001Hz,0000408727c,0000000.887s, 025.4C,00002191
2021-09-14 21:33:03 r, 20.06m,0000000001Hz,0000577725c,0000001.254s, 025.4C,00002191
2021-09-14 21:43:02 r, 19.39m,0000000002Hz,0000312701c,0000000.679s, 025.4C,00002191
2021-09-14 21:53:05 r, 19.49m,0000000001Hz,0000343728c,0000000.746s, 025.1C,00002191
2021-09-14 22:03:03 r, 20.12m,0000000001Hz,0000612472c,0000001.329s, 025.1C,00002191
2021-09-14 22:13:02 r, 19.49m,0000000001Hz,0000340895c,0000000.740s, 025.1C,00002191
2021-09-14 22:23:03 r, 20.12m,0000000000Hz,0000612320c,0000001.329s, 024.8C,00002191
2021-09-14 22:33:04 r, 20.01m,0000000001Hz,0000549046c,0000001.192s, 024.8C,00002191
2021-09-14 22:43:02 r, 20.44m,0000000001Hz,0000812751c,0000001.764s, 024.4C,00002191
2021-09-14 22:53:04 r, 20.03m,0000000001Hz,0000557694c,0000001.210s, 024.1C,00002191
2021-09-14 23:03:03 r, 20.30m,0000000001Hz,0000710408c,0000001.542s, 024.1C,00002191
2021-09-14 23:13:02 r, 20.30m,0000000000Hz,0000709266c,0000001.539s, 023.8C,00002191
2021-09-14 23:23:03 r, 20.50m,0000000001Hz,0000862834c,0000001.872s, 023.8C,00002191
2021-09-14 23:33:05 r, 20.60m,0000000001Hz,0000933977c,0000002.027s, 023.5C,00002191
2021-09-14 23:43:02 r, 20.64m,0000000000Hz,0000973126c,0000002.112s, 023.2C,00002191
2021-09-14 23:53:05 r, 20.69m,0000000000Hz,0001018566c,0000002.210s, 022.8C,00002191
